FW2498 Weather Reports


Display with metric or nautical units.
time (UTC)temp
F
wind
direction
speed
MPH
gust
MPH
rain 1hr
in
rain 24hr
in
rain mn
in
humidity
%
barometer
mb
20260510114529 45 180 1.0 4.0 0.00 0.00 0.00 43 1021.6
20260510113027 45 139 0.0 0.0 0.00 0.00 0.00 43 1021.5
20260510111526 45 139 0.0 0.0 0.00 0.00 0.00 43 1021.5
20260510110022 46 139 0.0 2.0 0.00 0.00 0.00 44 1021.6
20260510104522 46 139 1.0 3.0 0.00 0.00 0.00 43 1021.5
20260510103020 47 140 2.0 4.0 0.00 0.00 0.00 42 1021.4
20260510101520 46 120 2.0 4.0 0.00 0.00 0.00 42 1021.3
20260510100016 46 80 0.0 3.0 0.00 0.00 0.00 43 1021.4
20260510094517 46 75 0.0 1.0 0.00 0.00 0.00 46 1021.2
20260510093018 47 75 0.0 0.0 0.00 0.00 0.00 44 1021.3
20260510091516 47 75 0.0 1.0 0.00 0.00 0.00 45 1021.4
20260510090012 47 75 0.0 2.0 0.00 0.00 0.00 45 1021.3
20260510084509 48 75 2.0 3.0 0.00 0.00 0.00 44 1021.4
20260510083008 49 74 0.0 2.0 0.00 0.00 0.00 46 1021.4
20260510081508 49 73 1.0 4.0 0.00 0.00 0.00 40 1021.4
20260510080006 49 73 3.0 5.0 0.00 0.00 0.00 39 1021.5
20260510074505 48 74 0.0 0.0 0.00 0.00 0.00 43 1021.4
20260510073003 49 74 0.0 2.0 0.00 0.00 0.00 42 1021.4
20260510071600 49 73 0.0 6.0 0.00 0.00 0.00 41 1021.4
20260510070107 50 56 2.0 4.0 0.00 0.00 0.00 39 1021.3
20260510064636 50 56 0.0 5.0 0.00 0.00 0.00 38 1021.3
20260510063058 50 42 1.0 5.0 0.00 0.00 0.00 39 1021.3
20260510061556 50 40 0.0 5.0 0.00 0.00 0.00 42 1021.2
20260510060053 50 40 3.0 7.0 0.00 0.00 0.00 40 1020.9
20260510054551 50 42 4.0 7.0 0.00 0.00 0.00 40 1020.9
20260510053053 51 33 5.0 9.0 0.00 0.00 0.00 39 1020.9
20260510051553 51 60 1.0 8.0 0.00 0.00 0.00 40 1020.7
20260510050050 51 39 1.0 7.0 0.00 0.00 0.00 41 1020.4
20260510044545 51 44 0.0 5.0 0.00 0.00 0.00 40 1020.3
20260510043045 51 44 0.0 2.0 0.00 0.00 0.00 41 1020.2
20260510041543 51 44 2.0 5.0 0.00 0.00 0.00 40 1020.0
20260510040046 52 44 1.0 3.0 0.00 0.00 0.00 41 1019.8
20260510034551 52 44 2.0 4.0 0.00 0.00 0.00 41 1019.6
20260510033045 53 44 3.0 6.0 0.00 0.00 0.00 41 1019.5
20260510031537 53 22 2.0 4.0 0.00 0.00 0.00 42 1019.3
20260510030034 54 20 1.0 7.0 0.00 0.00 0.00 41 1019.1
20260510024533 55 12 7.0 10.0 0.00 0.00 0.00 40 1018.7
20260510023030 56 12 9.0 11.0 0.00 0.00 0.00 38 1018.4
20260510021532 57 7 8.0 13.0 0.00 0.00 0.00 37 1018.1
20260510020030 58 2 9.0 12.0 0.00 0.00 0.00 38 1018.0
20260510014525 59 343 5.0 8.0 0.00 0.00 0.00 37 1017.7
20260510013024 60 333 8.0 10.0 0.00 0.00 0.00 36 1017.6
20260510011524 61 346 10.0 15.0 0.00 0.00 0.00 34 1017.6
20260510010023 61 338 12.0 17.0 0.00 0.00 0.00 33 1017.4
20260510004522 62 354 12.0 17.0 0.00 0.00 0.00 34 1017.4
20260510003022 62 4 9.0 16.0 0.00 0.00 0.00 33 1017.3
20260510001521 62 337 9.0 18.0 0.00 0.00 0.00 32 1017.2
20260510000021 63 302 12.0 19.0 0.00 0.00 0.00 32 1017.1
20260509234520 62 7 7.0 13.0 0.00 0.00 0.00 34 1017.0
20260509233021 63 327 12.0 15.0 0.00 0.00 0.00 33 1017.0
20260509231518 63 310 11.0 18.0 0.00 0.00 0.00 33 1017.0
20260509230016 63 293 12.0 18.0 0.00 0.00 0.00 32 1016.9
20260509224515 62 312 11.0 31.0 0.00 0.00 0.00 34 1016.9
20260509223015 62 312 9.0 17.0 0.00 0.00 0.00 35 1017.0
20260509221514 61 344 8.0 15.0 0.00 0.00 0.00 37 1017.1
20260509220014 62 337 11.0 18.0 0.00 0.00 0.00 36 1017.0
20260509214511 62 349 11.0 19.0 0.00 0.00 0.00 35 1017.1
20260509213013 61 4 11.0 16.0 0.00 0.00 0.00 37 1017.1
20260509211509 62 270 12.0 18.0 0.00 0.00 0.00 36 1017.1
20260509210007 61 297 12.0 20.0 0.00 0.00 0.00 38 1017.3
20260509204511 60 279 9.0 23.0 0.00 0.00 0.00 38 1017.4
20260509203011 60 304 10.0 18.0 0.00 0.00 0.00 40 1017.4
20260509201504 59 331 13.0 19.0 0.00 0.00 0.00 41 1017.4
20260509200004 60 349 8.0 13.0 0.00 0.00 0.00 41 1017.3
20260509194504 59 343 14.0 23.0 0.00 0.00 0.00 39 1017.4
20260509193103 59 297 12.0 20.0 0.00 0.00 0.00 41 1017.4
20260509191601 59 348 13.0 22.0 0.00 0.00 0.00 42 1017.5
20260509190054 58 306 10.0 18.0 0.00 0.00 0.00 43 1017.5
20260509184551 57 313 12.0 30.0 0.00 0.00 0.00 44 1017.6
20260509183102 57 319 15.0 19.0 0.00 0.00 0.00 44 1017.6
20260509181549 56 354 7.0 18.0 0.00 0.00 0.00 45 1017.5
20260509180044 55 337 5.0 20.0 0.00 0.00 0.00 45 1017.5
20260509174549 55 348 13.0 18.0 0.00 0.00 0.00 45 1017.4
20260509173043 54 353 7.0 19.0 0.00 0.00 0.00 48 1017.4
20260509171543 53 333 10.0 14.0 0.00 0.00 0.00 49 1017.4
20260509170034 53 317 10.0 15.0 0.00 0.00 0.00 50 1017.3
20260509164531 52 348 6.0 14.0 0.00 0.00 0.00 53 1017.2
20260509163041 51 11 7.0 15.0 0.00 0.00 0.00 53 1017.2
20260509161627 51 360 9.0 14.0 0.00 0.00 0.00 53 1017.1
20260509160022 50 13 3.0 10.0 0.00 0.00 0.00 56 1017.1
20260509154519 49 312 3.0 12.0 0.00 0.00 0.00 59 1017.0
20260509153032 49 277 4.0 9.0 0.00 0.00 0.00 59 1017.2
20260509151518 49 1 0.0 7.0 0.00 0.00 0.00 59 1017.2
20260509150022 47 342 2.0 6.0 0.00 0.00 0.00 64 1017.1
20260509144509 47 347 3.0 8.0 0.00 0.00 0.00 65 1017.0
20260509143008 46 341 4.0 8.0 0.00 0.00 0.00 67 1016.9
20260509141506 45 17 6.0 10.0 0.00 0.00 0.00 69 1016.8
20260509140005 44 360 4.0 8.0 0.00 0.00 0.00 73 1016.6
20260509134500 43 339 4.0 8.0 0.00 0.00 0.00 72 1016.5
20260509133100 43 353 5.0 7.0 0.00 0.00 0.00 72 1016.5
20260509131558 42 358 2.0 4.0 0.00 0.00 0.00 75 1016.4
20260509130055 41 13 1.0 2.0 0.00 0.00 0.00 79 1016.3
20260509124552 40 13 0.0 3.0 0.00 0.00 0.00 80 1015.9
20260509123056 39 12 0.0 1.0 0.00 0.00 0.00 81 1015.7
20260509121541 38 12 0.0 2.0 0.00 0.00 0.00 80 1015.5
20260509120039 39 13 0.0 7.0 0.00 0.00 0.00 79 1015.1